Location: Newark
(52.3500°N, 175.9667°E)
Time: 22:29:17
(UTC+00:00)

Altair - Pass Details

Date: 24 April 2021
Orbit: 1501 x 1683 km, 47.2° (Epoch: 05 May)

Event Time Altitude Azimuth Distance (km) Brightness Sun altitude
Rises 17:06:45 0° 227° (SW) 4,898 9.5 0.4°
Reaches altitude 10° 17:10:04 10° 222° (SW) 3,894 9.1 0.9°
Maximum altitude 17:19:22 47° 153° (SSE) 2,046 8.3 2.2°
Drops below altitude 10° 17:28:20 10° 84° (E) 3,771 11.7 3.5°
Sets 17:31:30 0° 78° (ENE) 4,732 13.0 4.0°
